When you browse on this site, cookies collect data to enhance your experience and personalize the content and advertising you see.
Visit our Privacy Policy to learn more. By continuing to use the site, you agree to this use of cookies and data.
EN

Hourly Weather Townsville

Today, 4 August, Tuesday

Time Temperature Precipitation Wind Pressure Humidity
00:00 +17°C° 0 mm 2 mps 755 mmHg 91%
01:00 +17°C° 0 mm 2 mps 755 mmHg 91%
02:00 +17°C° 0 mm 2 mps 754 mmHg 91%
03:00 +17°C° 0 mm 2 mps 754 mmHg 92%
04:00 +17°C° 0 mm 2 mps 754 mmHg 92%
05:00 +17°C° 0 mm 2 mps 754 mmHg 92%
06:00 +16°C° 0 mm 2 mps 755 mmHg 92%
07:00 +16°C° 0 mm 2 mps 755 mmHg 93%
08:00 +19°C° 0 mm 2 mps 755 mmHg 83%
09:00 +21°C° 0 mm 2 mps 755 mmHg 73%
10:00 +25°C° 0 mm 2 mps 755 mmHg 63%
11:00 +25°C° 0 mm 2 mps 754 mmHg 60%
12:00 +26°C° 0 mm 2 mps 754 mmHg 58%
13:00 +26°C° 0 mm 3 mps 754 mmHg 56%
14:00 +26°C° 0 mm 3 mps 753 mmHg 60%
15:00 +25°C° 0 mm 3 mps 753 mmHg 63%
16:00 +24°C° 0 mm 2 mps 752 mmHg 67%
17:00 +23°C° 0 mm 2 mps 753 mmHg 74%
18:00 +20°C° 0 mm 2 mps 753 mmHg 82%
19:00 +20°C° 0 mm 1 mps 753 mmHg 89%
20:00 +20°C° 0 mm 1 mps 754 mmHg 90%
21:00 +19°C° 0 mm 1 mps 754 mmHg 91%
22:00 +19°C° 0 mm 1 mps 754 mmHg 91%
23:00 +19°C° 0 mm 1 mps 754 mmHg 92%

Tomorrow, 5 August, Wednesday

Time Temperature Precipitation Wind Pressure Humidity
00:00 +19°C° 0 mm 1 mps 754 mmHg 92%
01:00 +18°C° 0 mm 1 mps 754 mmHg 93%
02:00 +18°C° 0 mm 1 mps 754 mmHg 93%
03:00 +18°C° 0 mm 1 mps 754 mmHg 94%
04:00 +18°C° 0 mm 1 mps 754 mmHg 95%
05:00 +18°C° 0 mm 1 mps 754 mmHg 95%
06:00 +18°C° 0 mm 1 mps 754 mmHg 95%
07:00 +17°C° 0 mm 2 mps 754 mmHg 95%
08:00 +20°C° 0 mm 2 mps 755 mmHg 86%
09:00 +23°C° 0 mm 2 mps 755 mmHg 76%
10:00 +25°C° 0 mm 3 mps 755 mmHg 67%
11:00 +26°C° 0 mm 3 mps 754 mmHg 63%
12:00 +26°C° 0 mm 3 mps 754 mmHg 60%
13:00 +27°C° 0 mm 3 mps 753 mmHg 56%
14:00 +26°C° 0 mm 3 mps 753 mmHg 58%
15:00 +26°C° 0 mm 4 mps 752 mmHg 60%
16:00 +25°C° 0 mm 4 mps 752 mmHg 62%
17:00 +24°C° 0 mm 3 mps 752 mmHg 69%
18:00 +22°C° 0 mm 3 mps 753 mmHg 77%
19:00 +20°C° 0 mm 2 mps 753 mmHg 84%
20:00 +20°C° 0 mm 2 mps 753 mmHg 86%
21:00 +19°C° 0 mm 2 mps 754 mmHg 88%
22:00 +19°C° 0 mm 2 mps 754 mmHg 90%
23:00 +19°C° 0 mm 2 mps 754 mmHg 91%

Day after tomorrow, 6 August, Thursday

Time Temperature Precipitation Wind Pressure Humidity
00:00 +19°C° 0 mm 2 mps 754 mmHg 91%
01:00 +19°C° 0 mm 3 mps 754 mmHg 92%
02:00 +19°C° 0 mm 3 mps 753 mmHg 92%
03:00 +18°C° 0 mm 3 mps 753 mmHg 92%
04:00 +18°C° 0 mm 3 mps 753 mmHg 92%
05:00 +18°C° 0 mm 3 mps 753 mmHg 92%
06:00 +18°C° 0 mm 3 mps 754 mmHg 92%
07:00 +18°C° 0 mm 3 mps 754 mmHg 92%
08:00 +20°C° 0 mm 3 mps 754 mmHg 83%
09:00 +22°C° 0 mm 4 mps 754 mmHg 74%
10:00 +25°C° 0 mm 4 mps 754 mmHg 65%
11:00 +26°C° 0 mm 4 mps 754 mmHg 62%
12:00 +26°C° 0 mm 5 mps 753 mmHg 60%
13:00 +27°C° 0 mm 5 mps 753 mmHg 57%
14:00 +26°C° 0 mm 5 mps 752 mmHg 60%
15:00 +26°C° 0 mm 5 mps 752 mmHg 62%
16:00 +25°C° 0 mm 5 mps 752 mmHg 64%
17:00 +23°C° 0 mm 4 mps 752 mmHg 72%
18:00 +22°C° 0 mm 4 mps 753 mmHg 81%
19:00 +20°C° 0 mm 3 mps 753 mmHg 89%
20:00 +20°C° 0 mm 3 mps 753 mmHg 90%
21:00 +20°C° 0 mm 3 mps 753 mmHg 92%
22:00 +20°C° 0 mm 3 mps 754 mmHg 93%
23:00 +21°C° 0.1 mm 3 mps 753 mmHg 92%

7 August, Friday

Time Temperature Precipitation Wind Pressure Humidity
00:00 +21°C° 0.1 mm 3 mps 753 mmHg 92%
01:00 +21°C° 0.1 mm 3 mps 753 mmHg 92%
02:00 +21°C° 0.3 mm 3 mps 752 mmHg 93%
03:00 +21°C° 0.3 mm 3 mps 752 mmHg 94%
04:00 +21°C° 0.3 mm 3 mps 752 mmHg 96%
05:00 +21°C° 0.7 mm 2 mps 752 mmHg 96%
06:00 +21°C° 0.7 mm 2 mps 752 mmHg 97%
07:00 +22°C° 0.7 mm 1 mps 752 mmHg 98%
08:00 +23°C° 2.5 mm 1 mps 753 mmHg 95%
09:00 +24°C° 2.5 mm 1 mps 753 mmHg 93%
10:00 +24°C° 2.5 mm 1 mps 753 mmHg 91%
11:00 +25°C° 1.2 mm 1 mps 753 mmHg 90%
12:00 +25°C° 1.2 mm 1 mps 752 mmHg 88%
13:00 +26°C° 1.2 mm 1 mps 751 mmHg 86%
14:00 +26°C° 0.6 mm 1 mps 751 mmHg 85%
15:00 +26°C° 0.6 mm 1 mps 751 mmHg 84%
16:00 +26°C° 0.6 mm 1 mps 750 mmHg 82%
17:00 +25°C° 0.3 mm 1 mps 751 mmHg 87%
18:00 +24°C° 0.3 mm 1 mps 751 mmHg 91%
19:00 +22°C° 0.3 mm 0 mps 751 mmHg 95%
20:00 +21°C° 0.8 mm 0 mps 752 mmHg 96%
21:00 +21°C° 0.8 mm 0 mps 752 mmHg 96%
22:00 +23°C° 0.8 mm 1 mps 752 mmHg 97%
23:00 +23°C° 0.8 mm 1 mps 752 mmHg 97%

8 August, Saturday

Time Temperature Precipitation Wind Pressure Humidity
00:00 +23°C° 0.8 mm 1 mps 752 mmHg 97%
01:00 +23°C° 0.8 mm 1 mps 752 mmHg 97%
02:00 +23°C° 0.3 mm 1 mps 752 mmHg 96%
03:00 +23°C° 0.3 mm 1 mps 752 mmHg 96%
04:00 +23°C° 0.3 mm 1 mps 751 mmHg 95%
05:00 +23°C° 0 mm 1 mps 752 mmHg 95%
06:00 +23°C° 0 mm 1 mps 752 mmHg 94%
07:00 +23°C° 0 mm 1 mps 753 mmHg 93%
08:00 +24°C° 0 mm 1 mps 753 mmHg 82%
09:00 +26°C° 0 mm 2 mps 753 mmHg 71%
10:00 +27°C° 0 mm 2 mps 754 mmHg 60%
11:00 +28°C° 0 mm 2 mps 753 mmHg 52%
12:00 +29°C° 0 mm 2 mps 752 mmHg 43%
13:00 +30°C° 0 mm 2 mps 752 mmHg 35%
14:00 +30°C° 0 mm 2 mps 751 mmHg 35%
15:00 +30°C° 0 mm 2 mps 751 mmHg 35%
16:00 +30°C° 0 mm 2 mps 751 mmHg 35%
17:00 +28°C° 0 mm 2 mps 751 mmHg 38%
18:00 +26°C° 0 mm 3 mps 752 mmHg 42%
19:00 +24°C° 0 mm 3 mps 752 mmHg 45%
20:00 +24°C° 0 mm 3 mps 752 mmHg 46%
21:00 +22°C° 0 mm 3 mps 753 mmHg 47%
22:00 +22°C° 0 mm 3 mps 753 mmHg 49%
23:00 +21°C° 0 mm 3 mps 753 mmHg 49%

9 August, Sunday

Time Temperature Precipitation Wind Pressure Humidity
00:00 +20°C° 0 mm 3 mps 753 mmHg 50%
01:00 +20°C° 0 mm 3 mps 753 mmHg 51%
02:00 +19°C° 0 mm 3 mps 753 mmHg 50%
03:00 +19°C° 0 mm 3 mps 753 mmHg 50%
04:00 +19°C° 0 mm 3 mps 753 mmHg 49%
05:00 +18°C° 0 mm 4 mps 753 mmHg 50%
06:00 +18°C° 0 mm 4 mps 754 mmHg 51%
07:00 +16°C° 0 mm 5 mps 754 mmHg 52%
08:00 +19°C° 0 mm 4 mps 755 mmHg 47%
09:00 +20°C° 0 mm 4 mps 755 mmHg 43%
10:00 +22°C° 0 mm 4 mps 755 mmHg 38%
11:00 +23°C° 0 mm 4 mps 754 mmHg 37%
12:00 +26°C° 0 mm 4 mps 754 mmHg 35%
13:00 +27°C° 0 mm 3 mps 753 mmHg 33%
14:00 +27°C° 0 mm 3 mps 753 mmHg 34%
15:00 +27°C° 0 mm 3 mps 752 mmHg 35%
16:00 +27°C° 0 mm 2 mps 752 mmHg 35%
17:00 +25°C° 0 mm 2 mps 752 mmHg 40%
18:00 +24°C° 0 mm 2 mps 752 mmHg 44%
19:00 +21°C° 0 mm 2 mps 753 mmHg 48%
20:00 +20°C° 0 mm 2 mps 753 mmHg 47%
21:00 +19°C° 0 mm 2 mps 754 mmHg 47%
22:00 +19°C° 0 mm 3 mps 754 mmHg 46%
23:00 +18°C° 0 mm 3 mps 754 mmHg 44%
Show more